#timestamp,LO_Frequency,Hit,StdDev 
1621836015.2,286046999.3,P
1621836035.1,286046998.5,P
1621836036.0,286046998.5,P
1621836055.8,286046998.7,Y
1621836075.7,286047000.4,P
1621836095.5,286046998.2,N
1621836115.3,286046999.7,N
1621836135.2,286047000.0,N
1621836155.0,286047000.9,N
1621836155.9,286047000.9,N
1621836175.8,286046998.2,N
1621836195.6,286046998.2,N
1621836215.4,286047001.1,N
1621836235.3,286047000.0,N
1621836255.1,286047002.0,N
1621836275.8,286047001.8,N
1621836295.7,286047001.7,N
1621836315.5,286047003.2,N
1621836335.4,286047003.8,N
1621836355.2,286047003.1,N
1621836375.0,286047003.5,N
1621836375.9,286047003.5,N
1621836395.8,286047003.7,N
1621836415.6,286047004.2,N
1621836435.4,286047001.5,N
1621836455.3,286047003.9,N
1621836475.1,286047001.3,N
1621836495.9,286047004.3,N
1621836515.7,286047001.5,N
1621836535.5,286047002.3,N
1621836555.4,286047000.4,N
1621836575.2,286047000.2,N
1621836595.0,286047000.6,N
1621836595.9,286047000.6,N
1621836615.8,286047002.4,N
1621836635.6,286047002.8,N
1621836655.5,286047000.1,N
1621836675.3,286047001.5,N
1621836695.1,286047000.2,N
1621836715.9,286046999.9,N
1621836735.7,286047002.8,N
1621836755.5,286046999.9,N
1621836775.4,286046998.7,N
1621836795.2,286046998.3,N
1621836815.1,286046998.3,N
1621836816.0,286046998.3,N
1621836835.8,286046998.5,N
1621836855.6,286046998.6,N
1621836875.5,286047002.0,N
1621836895.3,286047004.7,N
1621836915.1,286047005.7,N
1621836935.9,286047008.5,Y
1621836955.7,286047011.6,P
1621836975.6,286047015.3,N
1621836995.4,286047016.5,N
1621837015.2,286047017.2,N
1621837035.1,286047018.3,Y
1621837036.0,286047018.3,P
1621837055.8,286047005.0,N
1621837075.7,286047002.1,N
1621837095.5,286046996.9,N
1621837115.3,286046996.5,N
1621837135.2,286046997.0,N
1621837155.0,286047002.6,N
1621837155.9,286047002.6,N
1621837175.7,286047005.9,N
1621837195.6,286047006.1,N
1621837215.4,286047003.5,N
1621837235.3,286047001.0,N
1621837255.1,286046997.1,N
1621837256.0,286046997.1,N
1621837275.8,286046997.9,N
1621837295.7,286046996.2,N
1621837315.5,286046993.8,N
1621837335.3,286046994.6,N
1621837355.2,286046992.6,N
1621837375.0,286046994.1,N
1621837375.9,286046994.1,N
1621837395.8,286046994.2,N
1621837415.6,286046996.1,N
1621837435.4,286046996.2,N
1621837455.3,286046996.9,N
1621837475.1,286046996.7,N
1621837495.8,286047000.3,N
1621837515.7,286047001.4,N
1621837535.5,286047008.1,N
1621837555.4,286047011.6,N
1621837575.2,286047006.2,N
1621837595.0,286047008.9,N
1621837595.9,286047008.9,N
1621837615.8,286047008.1,N
1621837635.6,286047004.4,N
1621837655.5,286047006.0,N
1621837675.3,286047002.7,N
1621837695.1,286047003.2,N
1621837715.9,286047012.2,N
1621837735.7,286047012.3,N
1621837755.5,286047018.5,Y
1621837775.4,286047015.4,P
1621837795.2,286047014.0,N
1621837815.1,286047011.0,N
1621837816.0,286047011.0,N
1621837835.8,286047013.1,N
1621837855.6,286047012.6,N
1621837875.5,286047012.8,N
1621837895.3,286047011.9,N
1621837915.1,286047006.2,N
1621837935.9,286047009.2,N
1621837955.7,286047008.5,N
1621837975.6,286047008.7,N
1621837995.4,286047005.0,N
1621838015.2,286047004.2,N
1621838035.1,286047003.0,N
1621838036.0,286047003.0,N
1621838055.8,286047002.9,N
1621838075.7,286047003.9,N
1621838095.5,286047003.1,N
1621838115.3,286047004.2,N
1621838135.2,286047001.3,N
1621838155.0,286047005.5,N
1621838155.9,286047005.5,N
1621838175.7,286047006.5,N
1621838195.6,286047009.1,N
1621838215.4,286047007.3,N
1621838235.3,286047009.1,N
1621838255.1,286047005.3,N
1621838256.0,286047005.3,N
1621838275.8,286047007.9,N
1621838295.7,286047006.5,N
1621838315.5,286047012.0,Y
1621838335.3,286047005.2,P
1621838355.2,286047007.2,P
1621838375.0,286047001.6,N
1621838375.9,286047001.6,N
1621838395.8,286046998.6,N
1621838415.6,286047000.8,N
1621838435.4,286047000.0,N
1621838455.3,286046999.4,N
1621838475.1,286046998.9,N
1621838495.8,286046997.9,N
1621838515.7,286046995.1,N
1621838535.5,286046996.0,N
1621838555.4,286046994.6,N
1621838575.2,286046991.7,N
1621838595.0,286046994.8,N
1621838595.9,286046994.8,N
1621838615.8,286046994.3,N
1621838635.6,286046992.5,N
1621838655.5,286046990.6,N
1621838675.3,286046990.5,N
1621838695.1,286046988.7,N
1621838715.9,286046991.6,N
1621838735.7,286046991.0,N
1621838755.6,286046989.2,N
1621838775.4,286046988.8,N
1621838795.2,286046989.3,N
1621838815.1,286046988.6,N
1621838816.0,286046988.6,N
1621838835.8,286046991.4,N
1621838855.6,286046991.1,N
1621838875.5,286046994.8,N
1621838895.3,286046994.3,N
1621838915.2,286046990.7,N
1621838935.9,286046989.6,N
1621838955.7,286046987.0,Y
1621838975.6,286046994.3,P
1621838995.4,286046998.0,P
1621839015.2,286046999.2,N
1621839035.1,286047000.8,N
1621839036.0,286047000.8,N
1621839055.8,286047001.1,N
1621839075.7,286047001.1,N
1621839095.5,286046999.5,N
1621839115.3,286046995.1,N
1621839135.2,286046995.9,N
1621839155.0,286046993.4,N
1621839155.9,286046993.4,N
1621839175.7,286046995.6,N
1621839195.6,286046997.2,N
1621839215.4,286046995.6,N
1621839235.3,286046994.2,N
1621839255.1,286046993.6,N
1621839256.0,286046993.6,N
1621839275.8,286046992.2,N
1621839295.7,286046990.5,Y
1621839315.5,286046995.9,P
1621839335.4,286046997.7,P
1621839355.2,286046997.5,P
1621839375.0,286046995.7,Y
1621839375.9,286046995.7,P
1621839395.8,286046996.6,P
1621839415.6,286046997.4,P
1621839435.5,286046995.8,Y
1621839455.3,286047000.4,P
1621839475.1,286046999.4,N
1621839495.9,286046998.7,N
1621839515.7,286047001.0,N
1621839535.5,286046996.8,N
1621839555.4,286046995.3,N
1621839575.2,286046996.9,N
1621839595.1,286046995.5,N
1621839596.0,286046995.5,N
